Terminal Aerodrome Forecast
Issued by NWS

Home | Current Version | Previous Version | Text Only | Print | Product List | Glossary On
Versions: 1 2 3 4 5 6 7 8 9 10 11 12 13 14 15 16 17 18 19 20 21 22 23 24 25 26 27 28 29 30 31 32 33 34 35 36 37 38 39 40 41 42 43 44 45 46 47 48 49 50
000
FTUS46 KPQR 230520
TAFONP
TAF
KONP 230520Z 2306/2406 33007KT 5SM BR SKC
     FM230800 01003KT 1SM BR BKN002
     FM231400 06005KT 3SM BR SCT002
     FM231900 02011KT P6SM SKC
     FM232100 36014G20KT P6SM SKC=

USA.gov is the U.S. government's official web portal to all federal, state and local government web resources and services.